Weather History for Wink, TX

Change the Weather History Date:

Thursday, May 15, 2014

  Actual Average Record
Temperature  
Mean Temperature 60 °F -  
Max Temperature 84 °F 89 °F 108 °F (2003)
Min Temperature 39 °F 56 °F 39 °F (2014)
Degree Days  
Heating Degree Days 4    
Growing Degree Days 10 (Base 50)    
Moisture  
Dew Point 11 °F    
Average Humidity 15    
Maximum Humidity 30    
Minimum Humidity 7    
Precipitation  
Precipitation 0.00 in - - ()
Sea Level Pressure  
Sea Level Pressure 30.14 in    
Wind  
Wind Speed 5 mph (SSW)    
Max Wind Speed 13 mph    
Max Gust Speed 18 mph    
Visibility 10 miles    
Events      
Averages and records for this station are not official NWS values.
T = Trace of Precipitation, MM = Missing Value Source: NWS Daily Summary

Daily Weather History Graph

Daily Weather History Graph

Search for Another Location

Airport:

Trip Planner

Search our weather history database for the weather conditions in past years. The results will help you decide how hot, cold, wet, or windy it might be!

Date:

Astronomy

May. 15, 2014 Rise Set
Actual Time 6:55 AM CDT 8:42 PM CDT
Civil Twilight 6:29 AM CDT 9:09 PM CDT
Nautical Twilight 5:56 AM CDT 9:42 PM CDT
Astronomical Twilight 5:22 AM CDT 10:16 PM CDT
Moon 9:53 PM CDT (5/15) 7:43 AM CDT (5/15)
Length of Visible Light 14h 40m
Length of Day
13h 46m
Full, 99% of the Moon is Illuminated
May 15
Full
May 21
Last Quarter
May 28
New
Jun 5
First Quarter
Jun 12
Full

Hourly Weather History & Observations

Time (CDT) Temp. Windchill Dew Point Humidity Pressure Visibility Wind Dir Wind Speed Gust Speed Precip Events Conditions
12:53 AM 50.0 °F - 10.0 °F 20% 30.24 in 10.0 mi Calm Calm - N/A   Clear
1:53 AM 48.9 °F - 10.0 °F 21% 30.24 in 10.0 mi Calm Calm - N/A   Clear
2:53 AM 50.0 °F - 10.9 °F 21% 30.22 in 10.0 mi WSW 4.6 mph - N/A   Clear
3:53 AM 48.0 °F - 10.9 °F 22% 30.21 in 10.0 mi WSW 5.8 mph - N/A   Clear
4:53 AM 46.9 °F - 10.9 °F 23% 30.20 in 10.0 mi WSW 5.8 mph - N/A   Clear
5:53 AM 41.0 °F 39.0 °F 10.0 °F 28% 30.21 in 10.0 mi North 3.5 mph - N/A   Clear
6:53 AM 39.0 °F 34.0 °F 10.0 °F 30% 30.22 in 10.0 mi North 6.9 mph - N/A   Clear
7:53 AM 45.0 °F 43.5 °F 12.0 °F 26% 30.22 in 10.0 mi NNE 3.5 mph - N/A   Clear
8:53 AM 57.9 °F - 12.9 °F 17% 30.22 in 10.0 mi NNE 3.5 mph - N/A   Clear
9:53 AM 64.9 °F - 12.9 °F 13% 30.21 in 10.0 mi South 4.6 mph - N/A   Clear
10:53 AM 71.1 °F - 12.0 °F 10% 30.21 in 10.0 mi SW 12.7 mph - N/A   Clear
11:53 AM 73.9 °F - 12.0 °F 9% 30.20 in 10.0 mi North - - N/A   Clear
12:53 PM 75.9 °F - 12.0 °F 9% 30.17 in 10.0 mi WSW 10.4 mph - N/A   Clear
2:53 PM 80.1 °F - 10.0 °F 7% 30.11 in 10.0 mi SW 10.4 mph 18.4 mph N/A   Clear
3:53 PM 82.0 °F - 10.9 °F 7% 30.07 in 10.0 mi West 11.5 mph 18.4 mph N/A   Clear
4:53 PM 81.0 °F - 10.0 °F 7% 30.05 in 10.0 mi Variable 4.6 mph - N/A   Clear
5:53 PM 81.0 °F - 10.9 °F 7% 30.04 in 10.0 mi SSE 5.8 mph - N/A   Clear
6:53 PM 82.0 °F - 10.9 °F 7% 30.02 in 10.0 mi Variable 5.8 mph 18.4 mph N/A   Clear
7:53 PM 80.1 °F - 10.9 °F 7% 30.01 in 10.0 mi SSE 6.9 mph - N/A   Clear
8:53 PM 73.0 °F - 12.0 °F 10% 30.01 in 10.0 mi SE 8.1 mph - N/A   Clear
9:53 PM 69.1 °F - 10.9 °F 11% 30.02 in 10.0 mi SE 10.4 mph - N/A   Clear
10:53 PM 64.9 °F - 10.9 °F 12% 30.03 in 10.0 mi SE 9.2 mph - N/A   Clear
11:53 PM 64.9 °F - 10.9 °F 12% 30.02 in 10.0 mi SE 9.2 mph - N/A   Clear